Location: Vancouver
(49.2500°N, 123.1330°W)
Time: 02:11:04
(UTC-08:00)

ISS - Visible Passes

Search period start: 24 February 2018 00:00
Search period end: 06 March 2018 00:00
Orbit: 402 x 407 km, 51.6° (Epoch: 24 February)

Date Brightness Start Highest point End Pass type
(mag) Time Alt. Az. Time Alt. Az. Time Alt. Az.
27 Feb -1.0 05:49:30 10° S 05:51:39 16° SE 05:53:48 10° E visible
01 Mar -2.2 05:40:25 10° SSW 05:43:21 31° SE 05:46:17 10° E visible
02 Mar -1.7 04:50:23 18° SSE 04:51:15 19° SE 04:53:41 10° E visible
03 Mar -0.6 04:00:23 10° ESE 04:00:23 10° ESE 04:00:31 10° ESE visible
03 Mar -3.4 05:33:02 20° SW 05:35:07 56° SSE 05:38:21 10° ENE visible
04 Mar -2.7 04:42:56 36° SSE 04:42:56 36° SSE 04:45:57 10° E visible
04 Mar -3.7 06:15:59 10° W 06:19:15 68° NNW 06:22:32 10° ENE visible
05 Mar -0.7 03:52:43 14° E 03:52:43 14° E 03:53:23 10° E visible
05 Mar -3.9 05:25:23 29° WSW 05:26:55 88° NNW 05:30:13 10° ENE visible
